CAPE
14 244 80 280 313 228 170 50 36 1 24 0 47 170 249 501 86 182 335 582 750 886 1641 1621 2341 2000 2182 2160 2223 2145 2021 2204 2016 1974 1980 1940 1771 1488 1446 1528 1487 1561 1721 1709 1697 1747 1510 1569 1556
50 3 239 180 179 211 172 50 67 21 42 48 235 295 386 502 386 315 612 861 827 1343 1548 1644 2614 2155 2164 2121 2241 2160 2034 2202 2101 2015 2106 1988 1890 1730 1765 1621 1241 1065 1049 1263 1429 1431 1550 1548 1724
0 0 70 255 227 187 148 45 44 50 60 253 437 499 574 320 208 384 794 982 1277 1667 1760 2156 2289 2353 2272 2191 2183 2191 2242 2174 2124 2265 1998 1940 1753 1796 1773 1647 1283 1323 1284 1047 1155 1611 1816 2067 2174
38 319 216 153 157 163 89 72 35 68 207 281 310 359 394 246 238 781 977 1159 1325 1631 1689 2098 2419 2339 2319 2266 2270 2349 2193 2223 2245 2149 2065 1935 1994 1933 1827 1665 1708 1976 1629 1399 1485 1823 2022 2183 2191
169 432 112 100 111 108 38 65 37 93 197 265 263 223 205 863 927 860 1039 1208 1327 1485 1784 1974 2517 2361 2338 2176 2417 2239 2095 2158 2197 2091 2096 2014 2107 1863 1827 1594 1444 1609 1667 1745 1872 2082 1898 2003 1695
488 423 69 91 69 118 215 174 196 241 250 194 100 100 451 938 729 942 1020 1214 1210 1658 1892 1811 2072 2492 2440 2296 1846 1979 1980 2067 1826 2073 2131 1947 1780 1598 1474 1315 1307 1469 1563 1637 1456 1678 2034 2018 1721
417 150 109 93 70 75 263 265 186 193 173 146 67 96 559 555 780 990 1176 1293 1395 1733 1850 2072 1829 2302 2383 2397 2043 2180 2183 2123 2195 2226 1903 2025 2202 1841 1613 1240 1174 1312 1489 1430 1319 1485 1827 1893 1873
587 101 44 38 69 57 180 187 160 161 227 114 65 160 283 450 1020 1170 1206 1359 1561 1801 1906 2052 2248 2074 2196 2329 2488 2432 2096 2203 2149 2403 2515 2647 2100 1858 2039 2134 1886 1281 1459 1472 1389 1456 1619 2187 2122
288 132 108 70 41 65 122 155 213 199 7 125 272 117 193 609 863 916 1205 1326 1796 1714 1588 1553 1929 2147 2084 2432 2544 2172 2383 2310 2439 2548 2503 2073 1791 1905 1648 1889 2017 1567 1484 1434 1461 1541 1957 1943 2035
130 187 39 66 43 96 147 195 183 79 166 233 210 279 423 541 635 718 528 623 1294 1375 1144 1733 1804 1698 2059 2174 2832 2298 2335 2669 2714 2534 2233 1884 2467 2017 1248 1843 1815 2072 2095 1871 1984 2349 2286 1715 1665
0 94 87 93 24 90 139 184 134 55 147 163 54 215 336 444 474 322 323 725 733 818 853 1325 1800 1962 2084 2318 2397 2568 2240 1933 2066 2197 2109 1863 1711 1389 1133 1659 1567 1716 1668 1766 1645 1667 1799 1933 1662
12 309 125 118 89 110 108 222 151 51 134 67 55 165 242 284 171 188 336 323 391 1343 1281 1184 1725 2279 2229 2327 2421 2182 1818 1603 1654 2083 2142 1926 1295 1472 1776 1084 1295 1787 1770 2127 1928 1705 2144 2023 2126
5 414 300 140 108 190 98 143 139 113 228 146 183 213 224 324 293 145 24 111 374 1045 1253 1120 1743 2154 2227 2213 1974 1888 1943 1838 2060 2063 2027 1862 1635 1679 1537 1328 1269 1964 2320 1815 1830 1764 1456 1171 1287
509 362 349 175 168 158 89 149 68 111 213 192 244 269 277 330 198 285 337 427 380 610 1063 1095 1428 1850 1876 1845 1827 1857 1949 2093 2194 2133 1924 1533 1119 1484 1575 1389 1906 2548 2433 1888 1730 2028 1566 1284 1089
407 363 277 238 142 183 63 70 96 148 235 226 247 298 295 286 303 432 395 568 409 587 972 1110 1189 1490 1720 1666 1790 1870 1789 1990 2161 1894 1863 1803 2130 1468 1417 2053 2337 2259 2437 2554 1968 1869 1924 1454 1083
425 269 166 137 209 140 43 11 57 117 250 240 290 293 287 279 315 396 375 641 707 725 1091 1148 736 1030 1330 1513 1708 1701 1680 1710 1602 1686 1664 1767 1905 948 1784 1974 1979 2450 2594 2250 2188 1576 1550 1681 1655
98 149 177 191 158 43 51 78 166 110 204 213 314 328 335 339 330 329 350 535 642 761 1057 1138 1149 925 1106 1524 1489 1607 1754 1460 1283 1663 1866 1927 1245 663 1802 1568 1327 2261 2810 2982 1888 1648 1568 1773 1759
111 122 158 232 93 71 110 2 71 135 190 203 313 326 383 373 358 345 302 437 537 693 938 1127 1170 1315 1294 1289 1417 1303 1197 676 1398 1770 1769 1772 1649 1459 1804 910 2072 2543 2984 3143 2916 1675 1432 1524 1726
26 183 224 135 1 0 0 37 47 84 142 127 226 279 317 356 371 318 274 363 442 622 850 1056 1146 1300 1213 1144 1298 1225 1172 860 1099 1630 1810 1536 1190 1061 1708 559 2133 2557 3076 3393 3089 1465 2091 1702 2281
45 58 250 108 22 3 2 0 90 114 136 194 224 227 291 290 327 316 257 293 419 581 785 1013 1110 1249 1191 1115 1262 1209 1274 1030 806 1525 1749 1279 1054 1140 1723 721 1973 2471 3006 3537 2931 2566 2405 1003 1170
0 2 246 99 38 53 0 54 130 101 97 106 141 220 235 254 294 325 324 282 390 540 728 960 1089 1184 1291 1197 1153 1278 1367 1232 1059 1464 1702 1734 818 1474 2235 1646 1880 1978 2653 2942 3295 3287 3096 1398 1081
0 6 242 70 35 0 16 1 21 118 100 57 79 60 174 193 265 266 300 357 386 458 565 808 1021 1026 1177 1265 1233 1449 1085 993 835 1275 1509 1569 1033 1661 1890 2101 1673 1383 2225 3181 3095 2858 2696 2522 1755
88 312 202 114 189 48 16 2 33 106 146 46 82 46 66 169 205 242 277 333 359 334 397 657 946 1017 1031 1118 1277 1116 1173 1548 1155 1353 1593 1760 1762 1596 1822 1893 1621 741 2039 2848 2855 3106 2772 2159 2241
483 293 136 138 249 93 40 18 34 86 135 196 45 106 20 88 171 221 257 279 324 290 310 507 819 955 1040 1004 1105 1391 1337 1182 1074 1226 1358 1266 1347 1575 1868 1923 1879 1684 2012 2402 2635 2813 2988 2436 2096
573 237 177 109 119 61 32 23 79 54 54 115 105 146 71 49 129 189 244 250 309 284 320 380 674 856 895 803 891 1117 1362 1372 1322 1460 1319 1211 1099 1220 1604 2044 1954 1835 2072 2142 2509 2642 2638 2622 2597
403 37 73 125 99 56 85 90 15 27 27 28 71 116 82 32 85 184 238 271 327 328 394 408 614 829 686 727 815 975 1125 897 931 1209 971 1094 952 1000 1547 1771 1837 1923 1968 1950 2280 2271 2170 2318 2340
513 307 127 180 217 135 160 77 37 6 2 11 55 15 74 34 40 174 203 254 308 375 450 512 648 861 628 625 754 825 927 911 861 1064 1338 1077 1305 1105 1414 1384 1542 1812 1860 1952 1989 1958 2261 2169 2274
496 321 319 390 117 27 122 49 9 25 36 15 34 15 69 110 41 147 199 271 307 348 432 495 600 804 684 548 508 484 661 789 845 1024 1206 1196 1235 1257 1329 1531 1443 1613 1762 2001 2035 1817 2058 2232 1933
163 299 76 147 240 116 164 114 183 270 258 83 10 21 77 139 116 167 210 290 430 330 427 532 580 644 650 584 593 518 412 553 790 854 1003 1313 1390 1369 1444 1695 1710 1736 1691 1951 2290 2141 2002 2075 2049
0 6 32 85 18 73 207 77 287 244 235 278 175 121 79 92 106 182 234 267 302 394 443 587 603 625 630 650 778 771 735 561 556 774 941 1127 1324 1547 1618 1823 1638 1700 1777 1782 2079 1940 1460 1904 1858
CIN
-24 -126 -242 -160 -106 -56 -22 -22 -56 -14 -82 -4 -106 -80 -60 -56 -90 -30 -92 -64 -48 -28 0 0 0 0 0 0 0 0 0 0 0 0 0 0 0 0 -2 0 0 0 0 0 0 0 -2 0 -4
-192 -200 -154 -170 -74 -8 -20 -52 -42 -72 -94 -102 -78 -94 -68 -54 -92 -116 -44 -24 -36 -8 0 0 0 0 0 0 0 0 0 0 0 0 0 0 0 0 0 0 -2 -4 -4 -2 -4 -2 -4 -4 0
0 -24 -172 -96 -62 -40 -26 -54 -66 -74 -104 -64 -64 -58 -64 -102 -142 -90 -34 -26 -8 0 0 0 0 0 0 0 0 0 0 0 0 0 0 0 0 0 0 0 -2 -4 0 -10 -2 -4 0 0 0
-134 -76 -108 -74 -24 -56 -66 -62 -64 -82 -72 -66 -70 -82 -86 -108 -104 -44 -20 -10 -6 0 0 0 0 0 0 0 0 0 0 0 0 0 0 -2 0 0 0 0 0 0 -4 -4 -4 -2 0 0 0
-112 -48 -52 -52 -30 -46 -62 -60 -64 -58 -62 -54 -70 -96 -110 -2 -14 -32 -18 -8 -4 0 0 0 0 0 0 0 0 0 0 0 0 0 0 0 0 0 0 0 0 0 -4 -4 -2 0 0 0 0
-28 -46 -16 -18 -28 -24 -16 -30 -46 -48 -56 -80 -98 -114 -34 -2 -22 -16 -12 -2 -2 0 0 0 0 0 0 0 0 0 0 0 -2 0 0 0 0 0 0 0 -4 -4 -2 -2 -10 -6 0 0 0
-32 -58 -12 -40 -24 -34 -30 -34 -28 -36 -44 -58 -94 -82 -12 -14 -8 -10 -4 0 0 0 0 0 0 0 0 0 0 0 0 0 0 0 0 0 0 0 0 -4 -16 -14 -12 -16 -18 -14 -8 -4 -2
-48 -56 -46 -46 -28 -38 -66 -46 -48 -44 -44 -80 -78 -88 -54 -36 0 -2 0 0 0 0 0 0 0 0 0 0 0 0 0 0 0 -2 -2 -2 0 0 0 -2 0 -18 -20 -16 -20 -18 -16 -6 -6
-74 -42 -8 -28 -52 -56 -88 -38 -38 -46 -8 -36 -34 -94 -94 -30 -2 -4 0 0 0 0 0 0 0 0 0 -2 0 -4 -2 0 0 0 -4 -4 0 0 0 -4 0 -12 -14 -18 -20 -22 -12 -16 -12
-50 -8 -10 -22 -64 -54 -50 -30 -38 -56 -28 -42 -76 -60 -40 -34 -18 -24 -48 -42 0 0 0 0 0 0 0 0 0 -2 -10 0 0 0 0 -4 -4 -10 -24 -24 -36 -30 -34 -38 -34 -22 -22 -30 -8
0 -12 -26 -22 -64 -58 -54 -10 -16 -38 -16 -62 -110 -76 -42 -36 -36 -62 -68 -30 -30 -24 -14 0 0 0 0 0 0 0 0 0 -2 -6 -6 -16 -20 -36 -50 -32 -26 -38 -54 -20 -28 -30 -26 -22 -16
-76 -22 -26 -24 -48 -36 -26 -12 -20 -16 -18 -52 -84 -112 -82 -60 -76 -68 -50 -62 -60 0 0 -2 0 0 0 0 0 0 0 -8 -6 -6 -18 -26 -30 -38 -42 -52 -48 -40 -50 -46 -46 -32 -42 -28 -24
-14 -28 -46 -46 -52 -48 -78 -16 -28 -8 -34 -46 -64 -78 -68 -38 -52 -68 -86 -78 -42 -2 0 -6 0 0 0 0 0 -2 -6 -6 -10 -14 -22 -24 -28 -38 -50 -68 -60 -58 -46 -32 -30 -30 -38 -46 -42
-34 -44 -34 -52 -10 -32 -48 -16 -72 -16 -24 -46 -62 -46 -36 -46 -70 -72 -54 -42 -42 -22 -4 -4 0 0 0 0 -8 -6 -10 -12 -12 -16 -26 -46 -48 -44 -40 -54 -42 -32 -30 -30 -38 -34 -26 -42 -34
-40 -22 -18 -4 0 0 -24 -6 -24 -10 -14 -32 -44 -32 -30 -42 -52 -40 -38 -26 -36 -22 -4 -2 0 0 0 -6 -10 -8 -14 -20 -18 -20 -38 -38 -34 -56 -76 -38 -26 -44 -50 -42 -42 -46 -32 -22 -42
-22 -26 -16 -8 0 0 -8 -26 -42 -28 -2 -14 -34 -30 -34 -42 -40 -32 -36 -16 -14 -8 -4 0 -14 -14 -8 -12 -16 -14 -14 -20 -34 -38 -38 -36 -42 -90 -56 -34 -44 -62 -42 -38 -28 -38 -28 -26 -32
-54 -12 -26 -6 -2 -12 -4 0 -8 -26 -16 -6 -26 -26 -26 -22 -34 -50 -30 -24 -18 -14 -8 -4 -2 -14 -14 -10 -16 -18 -32 -38 -58 -46 -34 -40 -58 -102 -46 -44 -76 -78 -32 -28 -34 -62 -52 -38 -36
-14 -20 -20 -14 -6 -4 0 -6 -24 -38 -14 -12 -18 -24 -34 -22 -32 -44 -32 -22 -20 -14 -14 -10 -8 -10 -16 -14 -22 -28 -42 -64 -40 -36 -28 -38 -38 -56 -46 -88 -54 -40 -18 -18 -30 -74 -88 -64 -70
-44 -26 -22 -32 -6 -68 0 -6 -24 -30 -18 -10 -8 -16 -24 -24 -16 -34 -46 -36 -26 -16 -10 -10 -14 -16 -16 -18 -10 -12 -16 -34 -28 -32 -38 -44 -62 -78 -60 -82 -44 -36 -18 -34 -50 -74 -52 -56 -76
-38 -40 -24 -50 -94 -56 -84 -24 -4 -16 -10 -2 0 -4 -18 -24 -30 -44 -48 -42 -30 -24 -14 -8 -12 -22 -24 -32 -28 -22 -22 -24 -24 -20 -30 -40 -50 -62 -44 -82 -36 -48 -16 -24 -40 -40 -26 -92 -142
0 -6 -40 -30 -72 -44 0 -32 -6 -4 -10 -34 -24 -12 -14 -24 -26 -36 -50 -50 -36 -24 -18 -14 -12 -18 -26 -36 -42 -44 -32 -30 -20 -14 -10 -16 -62 -34 -26 -46 -42 -54 -24 -12 -26 -32 -38 -40 -132
0 -84 -28 -60 -36 -10 -16 -2 -60 -26 -6 -8 -46 -30 -12 -26 -26 -22 -42 -46 -46 -36 -22 -14 -14 -16 -24 -34 -26 -42 -16 -12 -16 -10 -12 -12 -40 -24 -24 -28 -42 -72 -24 -20 -24 -28 -44 -56 -48
-40 -48 -42 -52 -26 -36 -24 -30 -26 -20 -8 -52 -28 -76 -24 -22 -30 -28 -50 -48 -40 -42 -42 -18 -16 -12 -20 -42 -34 -10 -12 -10 -12 -14 -12 -12 -18 -22 -14 -24 -36 -76 -18 -20 -26 -22 -36 -46 -42
-58 -64 -82 -54 -20 0 -14 -18 -20 -24 -40 -28 -56 -52 -84 -34 -40 -40 -50 -42 -38 -44 -44 -28 -16 -16 -20 -34 -36 -32 -28 -24 -16 -12 -10 -8 -8 -8 -20 -18 -26 -36 -26 -18 -16 -26 -24 -40 -58
-50 -20 -14 -6 -2 -8 -46 -36 -34 -20 -40 -26 -62 -34 -96 -64 -42 -46 -66 -66 -52 -60 -48 -36 -28 -18 -24 -28 -34 -38 -30 -34 -32 -24 -8 -8 -8 -10 -10 -16 -20 -12 -22 -22 -18 -20 -22 -20 -14
-58 -26 -8 -4 -24 -16 -30 -8 -6 -32 -30 -38 -48 -68 -126 -82 -52 -66 -72 -68 -76 -74 -60 -48 -40 -24 -28 -24 -32 -40 -34 -20 -22 -22 -12 -8 -8 -8 -12 -16 -18 -20 -16 -18 -16 -10 -10 -22 -12
-70 -46 -66 -18 -34 -10 -16 -22 -6 -20 -46 -92 -48 -46 -78 -92 -80 -72 -62 -60 -66 -82 -86 -78 -60 -40 -42 -30 -30 -32 -30 -36 -24 -32 -30 -14 -20 -12 -20 -18 -16 -16 -18 -16 -16 -4 -8 -14 -14
-54 -44 -18 -16 -2 -8 -26 -40 -12 -26 -26 -106 -42 -68 -62 -64 -84 -76 -66 -86 -78 -88 -86 -84 -70 -58 -54 -46 -46 -38 -38 -40 -34 -28 -28 -28 -26 -30 -22 -18 -18 -14 -18 -12 -16 -6 -6 -8 -8
-58 -20 -40 -18 -14 0 0 -12 -166 -132 -136 -60 -72 -52 -56 -60 -76 -122 -90 -102 -108 -102 -98 -98 -82 -64 -48 -42 -42 -44 -52 -40 -32 -30 -30 -22 -28 -32 -24 -22 -12 -14 -16 -14 -8 -8 -4 -4 -2
0 0 -52 0 -20 -64 -20 -6 -230 -268 -242 -130 -72 -64 -86 -64 -76 -96 -108 -126 -118 -144 -118 -114 -96 -82 -72 -56 -50 -46 -44 -40 -32 -28 -30 -28 -28 -26 -26 -20 -16 -22 -16 -16 -12 -6 -4 0 0
Wind_Speed
6 5 1 1 1 1 4 4 5 14 11 8 12 6 6 5 2 7 8 7 12 11 8 10 8 9 10 11 11 11 12 13 11 12 12 13 13 13 12 12 12 12 11 11 10 11 12 12 13
5 3 1 0 2 5 4 2 12 13 11 15 10 13 4 5 4 10 8 9 11 10 9 9 9 10 11 11 11 10 11 11 12 12 12 12 12 12 12 13 14 14 12 11 10 11 12 14 16
3 3 1 2 1 4 3 5 12 13 18 6 5 7 4 4 9 10 9 12 11 10 8 9 11 11 12 11 11 11 10 10 11 10 12 11 12 13 13 13 15 14 15 14 13 13 13 15 17
2 1 1 4 4 5 4 9 17 20 9 5 13 9 6 6 8 6 14 13 11 10 8 10 12 11 12 11 11 11 10 10 9 11 11 12 11 12 13 12 13 14 12 13 13 10 13 16 15
1 2 3 3 7 5 8 8 11 14 6 8 1 7 10 4 10 15 13 11 11 10 8 8 10 11 11 11 12 11 10 9 10 10 9 11 11 11 13 12 12 12 11 12 14 14 14 14 13
1 0 4 4 3 4 9 6 6 6 8 9 12 14 7 8 14 12 12 11 10 9 8 8 9 12 11 11 11 11 9 8 9 9 11 11 11 12 12 11 11 10 10 11 12 13 13 12 12
2 2 3 4 4 4 4 4 6 8 10 7 12 10 6 11 12 12 11 10 9 8 8 7 8 10 11 10 12 10 9 10 8 10 12 11 12 12 11 10 10 9 9 10 10 11 11 8 9
2 2 4 4 2 4 5 4 11 7 5 10 11 7 11 13 13 12 11 10 9 8 8 7 6 8 7 8 10 9 10 10 10 10 12 13 12 10 10 4 8 9 8 8 8 8 8 7 9
2 2 5 6 6 2 1 2 5 7 12 4 3 12 15 18 15 13 12 9 8 7 7 6 7 6 5 6 8 8 11 11 9 11 11 7 6 7 7 10 7 8 7 6 7 7 8 8 10
1 2 5 5 5 2 2 1 6 7 7 5 13 15 17 18 16 15 13 11 11 9 7 6 6 7 6 6 7 6 7 6 6 6 6 4 5 6 7 7 8 7 6 5 4 4 5 2 3
2 3 7 8 11 10 5 2 2 12 4 8 22 20 18 16 14 14 13 11 10 9 7 7 7 6 5 5 5 3 4 4 5 6 4 4 4 4 4 3 4 3 5 3 1 2 2 5 3
0 7 6 10 8 9 4 6 4 9 2 16 17 21 18 17 16 15 14 12 11 10 9 8 7 6 5 4 4 4 4 4 4 4 4 3 3 4 4 4 4 3 3 4 3 3 4 4 5
2 6 5 12 9 11 9 4 5 2 11 16 16 17 17 15 14 12 11 10 10 11 10 9 8 7 6 5 4 4 4 3 3 3 4 3 4 4 3 3 3 3 3 4 4 5 6 6 7
6 10 8 9 12 8 12 3 6 2 14 16 18 17 15 15 15 12 11 11 11 11 10 10 9 8 6 5 6 5 3 3 2 2 3 4 3 3 3 2 3 3 3 4 4 5 6 6 7
6 8 10 8 11 7 9 0 8 3 14 17 17 15 14 13 12 12 12 11 11 10 10 11 10 8 7 7 6 4 3 3 3 3 2 2 3 3 4 3 4 4 3 3 3 4 5 6 5
2 2 2 4 4 4 9 10 12 6 15 19 17 14 14 14 13 12 11 10 11 10 10 10 9 9 9 7 5 3 3 3 2 2 2 2 1 3 3 3 4 4 3 2 2 3 4 4 4
3 3 5 5 6 5 6 7 13 9 18 18 17 16 15 14 15 13 13 12 11 11 10 11 9 10 10 7 4 4 4 3 2 1 0 2 3 2 3 4 3 3 3 3 2 3 2 3 3
7 6 6 8 6 6 5 2 2 7 10 16 17 15 15 15 17 14 13 12 12 11 10 10 8 8 8 6 4 3 2 2 3 2 2 3 2 3 1 2 2 2 3 4 3 4 4 4 4
7 10 10 5 2 6 6 2 10 13 6 13 15 16 16 17 14 13 13 12 13 12 12 11 9 7 7 6 6 5 4 4 3 3 4 3 1 3 1 0 1 3 4 5 3 4 4 4 3
6 8 6 4 3 3 5 7 9 8 12 9 15 17 18 15 13 13 14 13 13 13 13 10 9 9 8 6 6 4 5 3 3 3 2 4 3 2 1 1 2 4 3 5 4 2 2 3 4
5 4 8 5 7 6 0 4 5 10 10 7 10 18 19 18 17 15 16 15 13 14 14 12 11 10 8 7 6 5 5 3 4 4 4 4 3 3 2 2 2 3 2 4 4 4 2 3 3
7 6 9 10 5 4 2 4 5 9 15 14 13 15 19 19 17 14 16 16 15 14 13 13 12 11 9 9 8 10 8 6 5 5 3 3 4 3 2 3 2 2 2 4 3 4 4 0 1
1 10 9 6 5 4 2 3 1 7 12 18 19 13 20 19 18 19 18 18 16 13 13 13 12 12 10 9 8 8 7 6 5 4 6 4 4 4 3 2 1 2 0 2 3 3 4 3 2
14 13 8 3 2 2 2 1 5 7 19 19 17 16 20 20 19 18 14 13 14 12 13 13 14 13 11 10 10 11 11 9 7 7 6 5 4 4 4 4 3 2 1 1 1 1 2 2 3
6 11 2 2 2 1 4 4 10 8 11 15 23 24 19 18 17 16 17 16 15 16 15 13 14 14 14 12 10 10 11 10 10 10 8 7 6 5 6 7 5 3 3 2 1 2 1 2 2
13 7 4 4 4 3 4 5 3 5 8 13 17 25 13 17 16 18 20 18 17 17 16 15 15 14 14 13 11 9 9 7 7 9 7 7 6 6 6 6 6 6 5 4 3 3 3 2 2
7 8 3 4 2 2 4 5 3 3 14 7 12 19 20 18 19 20 19 18 16 16 17 17 16 15 15 14 11 10 8 8 8 8 8 7 7 6 7 8 8 7 6 5 4 4 5 4 4
7 10 5 3 5 4 2 4 5 9 11 7 11 16 22 20 20 19 18 18 18 17 16 15 15 16 15 14 11 10 10 10 9 7 8 8 8 8 7 8 8 8 8 7 7 6 6 5 5
6 6 4 3 2 2 3 4 3 8 12 6 7 14 18 21 19 15 18 18 17 15 15 15 14 14 15 14 13 11 11 10 9 8 8 8 7 8 9 9 9 9 9 9 8 7 6 7 6
2 1 6 7 7 1 3 2 4 5 6 2 8 10 13 18 20 18 19 17 17 16 15 16 15 15 15 14 13 13 11 10 10 10 9 8 8 8 9 8 7 8 9 10 10 9 7 9 8
Wind_Direction
183 163 175 214 141 102 84 94 111 132 153 157 151 137 112 55 31 96 123 130 127 119 119 123 108 109 107 101 100 98 97 95 96 94 91 83 81 83 85 85 85 84 84 86 93 93 82 85 95
160 151 248 162 61 129 83 59 140 148 141 134 98 120 102 77 74 120 125 139 128 118 123 121 113 112 106 106 106 98 98 98 95 88 87 85 86 82 84 84 83 81 83 80 87 93 92 88 91
192 223 25 26 74 89 95 121 130 128 135 127 104 63 63 77 121 128 124 134 125 115 113 120 125 121 115 113 115 110 102 101 99 90 88 95 92 87 83 90 98 91 85 76 78 89 93 89 87
164 138 360 58 70 56 85 112 123 130 122 64 116 77 83 103 127 131 136 132 130 125 123 121 129 125 123 117 112 110 106 105 97 93 90 80 87 82 88 91 90 91 94 105 101 94 82 79 79
143 139 63 36 67 86 94 107 135 140 106 113 122 103 106 63 114 131 135 136 132 126 126 126 128 122 120 125 119 114 113 108 99 91 84 81 70 81 87 83 90 92 83 75 72 74 94 86 78
80 72 115 156 90 97 72 63 102 102 112 113 107 116 96 123 135 136 137 135 135 129 125 121 131 132 132 127 122 119 113 104 94 87 80 90 89 88 86 88 92 90 87 78 73 75 93 86 85
95 53 64 99 108 83 22 2 115 120 129 109 128 114 111 142 138 138 138 135 132 123 117 112 116 130 129 128 122 118 117 103 101 100 94 97 86 84 87 94 95 96 88 83 78 79 84 89 104
80 73 110 25 189 133 7 57 112 112 90 109 138 154 157 156 147 141 138 140 136 133 124 114 112 118 133 135 130 125 115 109 109 104 86 77 83 85 80 92 100 102 101 96 86 83 80 76 123
65 76 147 144 151 257 311 118 54 117 127 89 136 151 132 143 149 143 146 154 144 135 134 136 126 114 112 128 132 134 110 103 91 83 72 78 79 82 83 79 96 97 95 88 83 86 88 79 117
184 78 155 124 124 147 205 69 112 142 119 94 109 111 137 149 160 157 165 167 168 153 150 148 145 130 113 121 111 108 82 85 85 88 87 96 80 68 70 64 63 61 50 44 43 67 103 141 108
123 47 128 137 153 180 163 202 189 151 144 177 148 141 154 161 166 170 172 174 172 161 164 168 155 142 134 118 119 115 115 109 106 93 78 72 84 72 49 64 49 41 42 32 27 77 75 77 79
310 82 110 137 139 145 92 311 121 164 205 158 154 150 158 170 173 178 176 177 173 169 167 163 160 148 146 124 134 123 116 115 108 90 69 66 61 51 35 42 58 42 23 20 37 70 74 93 100
189 87 85 150 157 148 124 53 0 148 134 146 149 157 168 175 178 183 181 175 173 174 172 171 165 165 156 154 138 128 119 108 96 86 59 58 44 37 44 53 17 12 8 48 50 66 65 78 87
92 98 91 150 155 153 141 62 36 159 144 148 162 169 173 185 183 176 182 175 180 177 175 170 174 171 166 163 148 133 138 120 111 97 79 67 37 28 30 40 29 18 31 51 47 53 69 77 84
131 112 102 79 151 129 89 229 210 197 167 160 172 177 181 194 185 189 185 179 178 179 171 173 175 175 173 169 158 150 149 150 136 102 67 66 6 21 16 30 16 25 36 80 76 90 87 92 96
109 136 116 31 167 123 172 209 236 241 196 172 178 183 190 198 203 191 190 186 178 177 178 174 175 173 173 167 170 162 143 130 115 93 4 333 19 31 37 19 28 13 34 58 106 112 91 94 74
43 81 58 106 32 121 197 128 219 223 209 183 182 188 195 197 207 202 194 188 182 184 178 181 180 177 176 170 168 171 140 156 119 94 77 79 91 72 23 22 26 17 29 44 79 122 71 92 74
123 116 67 89 16 69 49 193 223 202 245 192 189 192 200 203 208 199 199 190 186 185 187 184 187 182 178 155 157 155 143 127 126 148 155 114 105 107 71 34 22 42 48 53 72 96 75 56 31
106 112 109 110 135 74 3 284 211 214 188 226 203 198 204 207 203 194 196 189 182 184 186 186 183 183 181 174 181 171 175 158 161 163 158 159 169 184 190 175 27 46 51 39 111 111 83 56 38
128 121 108 130 153 117 39 303 206 195 196 219 217 207 213 205 198 197 191 192 187 184 190 182 191 181 184 182 181 184 168 177 162 156 168 199 185 196 223 325 49 41 68 58 69 109 122 74 35
190 212 175 138 145 96 112 319 207 199 206 248 258 219 216 208 205 197 195 196 190 187 186 186 185 189 187 177 157 128 126 125 164 179 182 188 190 190 199 196 45 56 31 69 45 42 40 118 56
215 199 169 135 139 49 345 296 233 174 203 227 256 224 218 214 216 204 198 197 199 189 186 189 190 193 195 185 186 170 178 177 189 183 169 173 197 214 231 173 117 67 35 67 55 49 28 355 165
125 143 144 136 96 137 68 285 186 188 207 218 232 239 223 213 211 205 204 199 200 188 190 189 195 201 193 196 209 188 188 185 171 165 168 181 188 204 214 191 191 158 209 102 58 57 51 58 31
135 111 92 74 54 129 135 18 262 187 215 217 225 223 225 216 208 213 205 197 196 191 191 187 190 204 201 198 204 200 190 180 174 177 182 186 195 196 195 194 224 227 248 228 124 32 75 73 76
183 180 142 160 198 286 147 153 248 216 210 207 204 218 214 213 204 199 196 194 194 191 192 192 191 198 198 201 204 206 198 189 193 189 192 187 192 204 196 198 204 205 220 253 261 243 270 319 358
188 225 185 212 185 181 180 239 310 355 219 211 210 202 197 207 204 199 200 197 200 195 191 193 192 197 198 203 203 206 212 205 204 203 205 205 206 204 207 210 210 207 206 209 238 250 267 271 280
173 219 100 114 154 223 198 223 302 260 250 196 199 190 195 203 204 204 202 202 200 199 199 196 194 197 196 202 206 206 208 215 209 206 202 209 220 220 213 218 220 216 215 209 216 241 247 258 261
236 155 177 220 200 227 218 272 265 183 256 165 198 202 202 205 206 207 204 203 200 204 199 200 201 200 198 197 202 209 210 213 213 208 214 222 226 225 222 222 225 226 214 210 209 216 221 236 249
163 186 215 265 256 250 167 234 346 283 309 240 198 192 214 211 204 197 202 202 202 198 198 197 198 201 201 199 201 203 208 213 218 218 220 225 226 227 228 222 227 230 219 212 217 226 232 233 236
309 251 229 242 194 234 321 263 331 318 334 332 163 199 208 209 203 197 200 199 196 197 195 197 195 200 204 204 201 205 203 204 216 221 222 224 227 218 221 236 233 236 231 226 219 225 237 234 240